Location: Florida Caverns State Park
(30.8073°N, 85.2161°W)
Time: 03:36:17
(UTC-05:00)

Hubble Space Telescope - Visible Passes

Search period start: 11 December 2018 00:00
Search period end: 21 December 2018 00:00
Orbit: 537 x 540 km, 28.5° (Epoch: 10 December)

Date Brightness Start Highest point End Pass type
(mag) Time Alt. Az. Time Alt. Az. Time Alt. Az.
11 Dec 2.6 05:17:00 25° SSE 05:17:00 25° SSE 05:19:16 10° SE visible
11 Dec 3.3 06:55:31 10° SW 06:56:15 10° SSW 06:56:58 10° SSW visible
12 Dec 3.2 05:07:15 17° SSE 05:07:15 17° SSE 05:08:35 10° SE visible
13 Dec 3.7 04:57:31 11° SSE 04:57:31 11° SSE 04:57:49 10° SSE visible
17 Dec 3.3 19:36:08 10° S 19:36:40 11° SSE 19:36:40 11° SSE visible
18 Dec 2.9 19:24:43 10° S 19:26:56 15° SSE 19:26:56 15° SSE visible
19 Dec 2.6 19:13:40 10° SSW 19:16:35 19° SSE 19:17:11 18° SE visible
20 Dec 2.4 19:02:47 10° SSW 19:06:04 23° SSE 19:07:25 20° SE visible
